Location: Newark
(39.0083°N, 20.7336°E)
Time: 01:46:12
(UTC+00:00)

Nauka - Visible Passes

Search period start: 27 September 2021 00:00
Search period end: 07 October 2021 00:00
Orbit: 417 x 423 km, 51.6° (Epoch: 26 September)

Date Brightness Start Highest point End Pass type
(mag) Time Alt. Az. Time Alt. Az. Time Alt. Az.
27 Sep ? 18:20:47 10° NNW 18:21:49 12° N 18:21:49 12° N visible
28 Sep ? 17:33:56 10° N 17:34:55 11° N 17:35:54 10° NNE visible
29 Sep ? 18:22:41 10° NNW 18:24:01 17° N 18:24:01 17° N visible
30 Sep ? 17:35:52 10° NNW 17:38:04 16° NNE 17:38:46 15° NE visible
01 Oct ? 16:49:09 10° NNW 16:50:48 13° NNE 16:52:27 10° NE visible
01 Oct ? 18:25:02 10° NW 18:26:36 24° NNW 18:26:36 24° NNW visible
02 Oct ? 17:38:13 10° NW 17:41:15 30° NNE 17:41:34 29° NE visible
03 Oct ? 16:51:32 10° NNW 16:54:12 21° NNE 16:56:40 11° ENE visible
03 Oct ? 18:27:57 10° WNW 18:29:41 27° WNW 18:29:41 27° WNW visible
04 Oct ? 17:41:04 10° NW 17:44:27 83° NE 17:44:57 62° ESE visible
05 Oct ? 16:54:21 10° NW 16:57:38 48° NE 17:00:23 14° ESE visible
05 Oct ? 18:31:56 10° W 18:33:25 16° WSW 18:33:25 16° WSW visible
06 Oct ? 17:44:40 10° WNW 17:47:38 29° SW 17:49:04 21° S visible
